CST,Max TemperatureF,Mean TemperatureF,Min TemperatureF,Max Dew PointF,MeanDew PointF,Min DewpointF,Max Humidity, Mean Humidity, Min Humidity, Max Sea Level PressureIn, Mean Sea Level PressureIn, Min Sea Level PressureIn, Max VisibilityMiles, Mean VisibilityMiles, Min VisibilityMiles, Max Wind SpeedMPH, Mean Wind SpeedMPH, Max Gust SpeedMPH,PrecipitationIn, CloudCover, Events, WindDirDegrees
2012-2-1,57,38,19,21,16,10,83,50,20,30.14,30.11,30.07,10,10,7,15,6,23,0.00,0,,291
2012-2-2,57,38,20,25,19,13,80,55,24,30.16,30.12,30.05,10,10,5,13,5,17,0.00,0,,167
2012-2-3,44,38,33,36,34,30,95,88,57,30.17,30.13,30.08,10,7,2,23,13,30,0.25,8,Rain-Snow,36
2012-2-4,32,26,19,32,27,18,98,89,79,30.42,30.34,30.21,10,6,1,23,17,29,0.10,7,Snow,344
2012-2-5,36,24,13,31,19,11,93,86,76,30.42,30.38,30.31,10,10,10,12,7,,0.00,0,,288
2012-2-6,41,26,11,31,21,9,94,84,55,30.27,30.18,30.10,10,7,2,8,4,,0.00,2,,277
2012-2-7,32,27,22,29,21,18,92,85,79,30.47,30.39,30.23,10,8,2,23,17,32,0.00,8,Snow,1
2012-2-8,24,22,19,22,18,16,88,84,80,30.48,30.36,30.25,10,10,10,13,6,16,0.00,8,,217
2012-2-9,39,27,15,29,22,14,96,87,64,30.23,30.11,29.99,10,6,0,13,4,,0.00,4,Fog,251
2012-2-10,27,20,12,20,12,1,85,70,55,30.48,30.29,30.15,10,10,10,20,13,29,0.00,5,,353
2012-2-11,15,8,0,1,-4,-7,74,62,48,30.67,30.60,30.53,10,10,10,16,8,17,0.00,1,,350
2012-2-12,27,14,0,17,9,-5,83,71,63,30.48,30.19,29.91,10,10,10,24,11,30,0.00,2,,165
2012-2-13,33,28,22,26,23,17,96,85,70,29.82,29.71,29.66,10,8,1,15,8,17,0.00,5,Snow,251
2012-2-14,48,32,17,34,25,16,93,81,52,29.79,29.75,29.72,10,9,7,10,6,,0.00,1,,270
2012-2-15,40,34,28,32,28,22,96,78,50,30.12,29.92,29.77,10,9,2,24,9,31,0.00,2,,337
2012-2-16,47,34,22,32,25,18,91,74,47,30.24,30.17,30.06,10,10,10,16,6,18,0.00,1,,238
2012-2-17,45,35,25,30,26,22,92,74,44,30.14,30.07,30.03,10,10,7,13,5,17,0.00,0,,332
2012-2-18,41,31,21,26,23,19,95,76,51,30.23,30.16,30.04,10,10,10,13,4,17,0.00,1,,204
2012-2-19,40,33,26,35,29,20,93,83,71,30.02,29.88,29.71,10,10,7,18,9,26,0.00,5,,153
2012-2-20,48,42,35,41,37,32,92,86,67,29.69,29.58,29.50,10,9,3,29,18,37,0.00,8,Rain-Snow,155
2012-2-21,50,37,24,29,25,22,89,64,38,29.88,29.81,29.68,10,10,10,18,9,22,0.00,0,,273
2012-2-22,57,44,31,38,33,29,92,67,41,29.63,29.54,29.37,10,10,10,17,10,23,0.00,3,,287
2012-2-23,42,37,32,34,28,20,96,70,45,29.90,29.56,29.31,10,10,10,45,17,56,0.00,3,,323
2012-2-24,41,32,23,27,24,20,94,81,41,30.24,30.11,29.95,10,10,10,23,13,32,0.00,1,,299
2012-2-25,53,36,19,27,23,18,95,66,29,30.24,29.91,29.52,10,10,10,31,11,37,0.00,2,,152
2012-2-26,49,38,27,21,17,11,75,43,30,30.28,29.95,29.66,10,10,10,26,14,34,0.00,0,,300
2012-2-27,45,30,15,21,16,11,86,61,34,30.42,30.31,30.15,10,10,10,24,7,29,0.00,2,,117
2012-2-28,61,48,36,52,35,23,93,70,53,30.11,29.70,29.33,10,10,4,33,15,45,0.03,7,Rain-Thunderstorm,159
2012-2-29,51,40,30,25,22,20,72,54,29,29.83,29.75,29.59,10,10,10,37,26,48,0.00,0,,302